Tracking 29892 objects as of 21-Nov-2024
HD Live streaming from Space Station
objects crossing your sky now

STARLINK-30250

Track STARLINK-30250 now!
10-day predictions
STARLINK-30250 is classified as:


NORAD ID: 57527
Int'l Code: 2023-115G
Perigee: 564.9 km
Apogee: 567.4 km
Inclination: 43.0 °
Period: 95.8 minutes
Semi major axis: 6937 km
RCS: Unknown
Launch date: August 8, 2023
Source: United States (US)
Launch site: AIR FORCE WESTERN TEST RANGE (AFWTR)
Your satellite tracking list
Your tracking list is empty




NASA's NSSDC Master Catalog

Two Line Element Set (TLE):
1 57527U 23115G   24325.76398982  .00001823  00000-0  14994-3 0  9990
2 57527  43.0083  59.9028 0001798 264.4525  95.6112 15.02549851 71925
Source of the keplerian elements: AFSPC